Hourly Data Report for March 03, 2021

KUGAARUK CLIMATE
NUNAVUT
Current Station Operator: ECCC - MSC

68°32'15.060" N
89°47'47.020" W
15.80 m
2303094
71407
NBB

Download Data

Hourly Data (March 2021)
Hourly Data Report for March 3, 2021
TIME
LST
Temp Definition
°C
Dew Point Definition
°C
Rel Hum Definition
%
Precip. Amount Definition
mm

Wind Dir Definition
10's deg

Wind Spd Definition
km/h
Visibility Definition
km
Stn Press Definition
kPa
Hmdx Definition


Wind Chill Definition


Weather Definition


00:00 -39.5 -43.3 67 0.0 23 34   101.27   -59 LegendNANA
01:00 -39.1 -43.0 67 0.0 23 37   101.37   -59 LegendNANA
02:00 -38.3 -42.2 67 0.0 23 29   101.53   -56 LegendNANA
03:00 -37.5 -41.5 66 0.0 23 30   101.62   -55 LegendNANA
04:00 -37.6 -41.8 65 0.0 22 33   101.74   -56 LegendNANA
05:00 -37.7 -42.0 64 0.0 22 28   101.88   -55 LegendNANA
06:00 -37.2 -41.6 64 0.0 25 20   101.96   -52 LegendNANA
07:00 -36.5 -41.0 63 0.0 22 26   102.03   -53 LegendNANA
08:00 -35.8 -40.8 60 0.0 22 29   102.13   -53 LegendNANA
09:00 -36.8 -42.0 59 0.3 27 4   102.24   -42 LegendNANA
10:00 -36.5 -41.8 58 0.3 12 1   102.30   -38 LegendNANA
11:00 -37.2 -42.0 61 0.0 4 11   102.41   -48 LegendNANA
12:00 -33.9 -38.7 62 0.0 10 9   102.45   -43 LegendNANA
13:00 -33.7 -38.3 64 0.0 1 10   102.49   -44 LegendNANA
14:00 -31.9 -36.1 67 0.0 3 1   102.56   -33 LegendNANA
15:00 -32.6 -36.5 68 0.0 4 11   102.62   -43 LegendNANA
16:00 -32.3 -36.1 69 0.0 4 13   102.68   -43 LegendNANA
17:00 -31.8 -35.4 70 0.0 5 13   102.74   -43 LegendNANA
18:00 -31.6 -35.1 71 0.0 4 9   102.83   -40 LegendNANA
19:00 -30.7 -34.2 72 0.0 5 9   102.90   -39 LegendNANA
20:00 -30.3 -33.7 72 0.0 0 1   102.94   -31 LegendNANA
21:00 -31.1 -34.5 72 0.0 25 7   103.02   -39 LegendNANA
22:00 -31.1 -34.6 72 0.0 24 6   103.10   -38 LegendNANA
23:00 -30.4 -33.8 72 0.0 4 4   103.16   -35 LegendNANA

Notes on Data Quality.

Legend

  • E = Estimated
  • M = Missing
  • NA = Not Available*
  • [empty] = Indicates an unobserved value
Date modified: